Вернуться в каталог

STARLINK-5558

АктивенСвязьVLEO
NORAD 55631·PAYLOAD·🇺🇸 United States

Запущен Feb 17, 2023 с Vandenberg Space Force Base

Loading…

Ближайшие Пролёты (ближайшие 24 часа)

TLE

СвежийSource: CelesTrak SupGP

Эпоха: Sep 15, 2026, 01:31 UTC

1 55631C 23021D   26258.06368056 -.00016684  00000+0 -13981-2 0  2583
2 55631  69.9998  86.8852 0002548 273.4778 202.8746 14.98344480    11

Отслеживайте STARLINK-5558 в реальном времени с AllMySat

Download on the App Store